Wind_Speed
27 28 30 32 32 34 36 35 36 34 33 31 31 32 32 33 34 34 34 35 37 35 29 24 24 24 22 18 18 21 23 24 25 25 25 26 27 29 30 30 31 31 30 30
27 27 29 29 28 33 35 35 35 35 31 32 31 31 31 30 32 32 31 31 31 29 24 21 22 22 20 17 15 15 16 18 20 23 25 27 28 30 31 31 31 30 29 28
28 27 28 26 25 30 33 35 36 34 31 31 31 30 30 29 30 31 29 27 25 23 19 17 16 18 19 19 18 18 18 20 23 25 27 29 30 31 31 31 31 30 29 27
30 29 27 25 26 28 31 33 33 34 32 32 32 30 30 28 28 28 26 23 21 19 15 13 11 9 11 14 17 18 20 21 23 23 24 26 27 28 29 29 28 27 26 26
30 30 27 21 26 29 31 28 26 32 35 35 34 31 31 28 25 25 24 21 18 16 13 11 10 8 6 8 12 15 17 19 21 22 24 25 26 28 28 27 26 24 22 21
29 31 29 27 29 30 30 25 23 28 32 36 38 35 31 27 23 22 21 19 17 15 12 10 8 7 7 8 11 13 16 18 21 22 23 23 24 24 23 20 19 17 16 16
29 29 28 29 31 31 31 28 26 26 28 31 33 35 31 26 22 19 18 16 14 13 11 10 8 7 7 8 8 10 12 14 14 15 16 17 18 18 16 13 12 13 13 12
32 29 26 28 30 31 31 30 28 27 27 28 29 31 31 26 21 17 16 14 12 9 8 6 5 6 6 6 6 7 7 7 6 5 6 9 12 14 14 13 13 12 11 11
34 32 30 30 31 32 33 32 31 29 27 27 27 28 29 27 22 18 16 15 13 11 9 7 7 7 7 7 7 7 6 5 3 1 2 4 7 9 10 10 11 11 12 13
36 33 33 33 33 34 35 35 33 32 29 27 26 27 29 28 24 22 19 18 17 15 13 12 11 11 11 11 10 9 7 5 3 1 2 4 5 7 8 9 10 12 13 12
37 34 35 35 36 37 37 36 35 33 31 29 27 27 29 29 26 24 22 21 20 19 18 16 15 14 14 13 12 11 10 9 7 6 6 7 8 9 10 11 12 12 12 13
38 35 35 35 36 38 38 37 35 34 32 30 29 28 30 31 29 26 24 24 23 22 20 19 17 15 14 14 14 13 13 13 12 12 12 12 13 13 13 13 13 14 14 14
43 41 39 37 37 38 38 38 36 34 32 31 29 29 29 30 30 28 26 26 26 25 24 22 20 19 17 16 15 15 15 15 15 15 15 16 16 15 15 15 15 15 15 15
48 48 45 42 40 39 38 39 38 36 33 31 29 28 28 28 27 26 25 26 28 28 28 27 25 24 22 19 18 17 17 18 18 18 17 17 17 17 17 17 17 17 16 16
51 49 48 48 45 43 41 41 40 37 34 32 31 29 28 27 25 23 23 24 27 28 29 29 29 28 26 24 23 21 20 20 19 19 19 18 17 17 17 18 18 17 17 17
54 51 49 49 49 48 46 45 43 39 36 34 32 32 32 30 28 26 26 26 25 26 28 30 30 29 28 27 26 25 23 22 20 20 20 20 19 18 18 18 18 17 16 15
54 54 53 50 48 47 46 45 44 42 40 38 36 35 35 35 33 30 29 28 26 24 25 28 28 27 26 24 23 23 23 22 22 21 21 21 21 20 19 18 17 17 16 14
54 55 56 55 53 48 44 43 42 42 40 39 37 37 37 36 36 33 30 30 27 24 23 23 22 21 20 19 18 18 19 21 22 22 22 21 21 21 20 18 17 17 16 14
55 57 57 56 56 56 53 49 45 41 39 38 37 36 35 34 34 34 32 32 30 26 24 22 20 18 16 16 16 16 17 18 20 21 21 21 21 20 19 17 16 16 16 14
59 58 59 61 63 63 63 58 51 45 42 39 37 35 34 34 36 37 36 35 31 27 26 26 23 19 17 16 15 15 15 15 16 18 20 20 20 19 18 17 16 16 16 15
68 68 68 71 73 74 74 71 65 55 47 43 38 35 35 36 38 39 38 36 32 31 30 29 27 23 21 18 17 17 16 14 13 14 17 19 19 19 18 16 15 15 17 17
77 79 79 78 78 77 77 76 73 67 58 50 44 38 35 35 38 41 39 36 34 33 32 31 30 27 24 23 22 21 20 18 14 14 15 18 18 18 18 17 15 15 16 18
63 62 61 59 59 60 63 67 69 68 64 58 51 46 41 38 37 40 43 41 38 36 34 32 31 31 29 27 27 26 25 22 18 16 16 16 17 17 17 17 16 16 16 18
50 47 44 42 42 42 43 47 51 55 57 56 54 51 47 42 37 36 41 43 41 37 34 32 32 33 34 33 31 29 28 26 23 20 19 17 17 17 17 18 18 18 19 20
39 36 35 33 31 30 30 31 33 37 41 45 46 47 47 45 41 38 38 40 39 36 35 33 33 34 37 38 37 34 31 28 27 24 23 21 19 19 19 20 21 21 21 20
32 31 31 31 29 27 26 24 21 20 22 28 33 38 41 40 39 38 37 35 35 35 35 35 35 35 37 39 39 38 35 32 31 29 27 25 23 22 22 23 22 20 17 16
29 30 30 29 27 27 28 25 19 14 15 15 20 27 32 33 32 32 33 33 33 34 35 35 35 36 37 39 40 39 38 35 33 31 29 28 26 26 26 26 25 22 19 17
Wind_Direction
300 297 291 289 291 291 289 288 289 289 290 294 296 302 310 319 322 321 319 317 318 318 309 284 260 245 240 233 224 223 223 226 233 239 244 250 256 261 263 263 263 264 266 268
302 302 298 298 295 288 287 285 284 284 287 288 293 299 308 318 322 324 322 319 322 324 316 295 276 262 256 251 243 235 235 240 247 250 251 252 256 258 261 263 264 264 264 266
303 302 301 310 303 293 290 286 284 284 284 283 287 292 303 314 321 325 323 320 326 330 323 315 297 276 263 257 253 250 251 253 255 256 255 255 255 258 261 263 264 265 264 266
308 305 307 314 306 302 296 293 288 282 280 281 283 288 296 307 316 323 323 319 325 334 332 327 320 298 269 256 254 251 251 253 256 259 261 260 259 260 262 265 265 263 263 266
314 313 317 326 314 308 306 310 297 280 274 276 279 283 289 298 309 317 321 316 316 327 334 331 328 321 297 265 255 252 254 258 262 265 265 263 260 260 262 262 261 260 263 267
319 319 324 327 314 313 313 316 299 288 282 279 275 276 281 289 300 309 316 315 308 308 314 318 317 313 302 284 271 266 266 268 269 269 266 262 259 258 256 256 256 258 263 268
315 317 323 319 317 318 318 316 306 299 290 286 278 272 274 280 289 299 307 312 312 305 299 301 307 309 309 303 296 290 287 283 280 274 266 256 249 247 248 253 256 260 265 270
313 317 317 312 313 316 317 316 313 305 297 289 281 271 267 270 277 286 294 301 306 308 305 303 307 316 319 320 321 323 324 320 310 288 256 240 238 241 246 251 255 263 270 279
310 313 310 307 307 310 311 313 314 309 301 293 283 271 265 264 266 272 281 283 286 287 288 290 292 298 301 303 314 326 339 351 4 45 201 220 228 238 245 251 259 268 279 289
308 307 302 302 304 305 305 306 308 309 305 297 289 275 266 262 261 263 271 275 274 275 279 284 287 288 287 288 295 305 313 321 332 318 241 249 256 261 266 269 272 278 285 290
313 307 300 301 303 305 305 305 305 305 303 298 292 282 270 262 260 260 263 268 270 271 275 279 282 284 285 287 290 293 293 292 292 286 275 271 273 275 276 276 276 277 282 288
316 309 303 301 301 301 302 302 302 301 299 297 292 285 274 263 259 260 261 262 263 266 269 272 276 281 287 291 293 293 291 288 285 283 280 278 278 278 279 280 282 284 287 291
308 307 303 298 295 294 296 297 297 296 295 293 288 283 276 266 260 259 262 262 259 259 262 265 268 273 277 281 285 288 290 287 283 280 278 278 278 279 281 284 288 291 293 294
306 306 303 299 294 290 291 293 294 292 291 290 282 275 272 267 263 262 263 263 260 257 257 259 262 266 268 270 273 278 282 282 279 277 276 276 278 280 284 287 289 289 289 287
302 302 300 299 294 289 287 288 288 288 286 284 278 267 264 262 260 263 269 271 264 257 253 254 257 260 263 266 268 269 273 274 273 272 271 272 273 276 281 285 287 288 286 284
298 297 294 292 290 288 286 283 281 280 279 277 270 261 256 254 255 262 268 274 271 259 250 249 252 257 261 264 266 264 264 267 267 264 264 264 266 270 276 281 284 285 285 285
295 294 293 290 288 285 281 278 276 276 276 273 266 258 254 252 252 256 262 266 267 260 250 246 249 255 260 263 264 260 258 261 264 261 259 260 262 265 271 277 280 281 285 289
291 291 291 291 290 287 281 275 272 273 276 271 264 258 253 251 250 251 253 257 259 257 251 246 247 252 259 263 263 261 259 260 262 260 256 257 260 263 267 272 274 276 281 287
285 285 286 286 285 283 281 278 274 271 271 266 258 254 250 247 245 245 246 249 251 251 249 245 242 246 254 261 264 266 265 265 263 256 251 253 258 262 266 269 269 270 275 280
276 277 278 279 280 279 277 275 272 268 262 257 249 245 245 246 246 245 243 243 242 242 246 248 246 245 251 259 264 268 270 269 266 259 254 254 258 262 264 264 265 267 269 273
277 278 279 279 278 277 276 274 271 266 260 254 248 243 242 242 242 241 240 239 237 237 241 245 248 249 252 257 261 264 267 268 268 263 258 256 258 260 260 258 259 263 266 269
283 284 285 283 279 275 273 273 271 268 261 255 250 249 246 242 238 235 232 229 228 232 236 241 245 248 252 257 261 262 263 265 267 269 265 261 258 258 257 256 255 259 265 269
298 296 294 291 287 281 275 272 272 270 265 259 254 253 252 249 243 235 230 225 224 228 233 238 242 245 249 256 262 261 259 260 263 268 271 266 259 257 259 259 258 260 266 270
309 309 307 303 298 292 285 277 273 269 266 262 257 254 253 250 246 240 231 223 221 224 231 237 240 240 242 247 254 257 255 253 255 260 266 269 262 259 261 263 265 267 269 271
317 318 320 320 318 312 301 288 277 270 265 262 258 254 251 249 246 242 236 226 222 225 230 235 238 239 240 244 248 251 250 247 246 251 259 265 264 261 262 265 268 271 273 272
322 323 324 325 324 323 318 307 291 270 258 255 254 252 249 249 247 244 241 236 232 232 234 236 237 238 240 242 245 247 247 244 243 247 252 258 262 262 263 265 267 270 271 272
323 322 321 320 318 317 315 309 293 260 234 231 238 244 245 245 245 243 240 238 237 237 237 237 237 238 239 242 244 246 245 242 241 244 248 252 256 262 263 264 267 270 270 273
Height
5797 5794 5790 5788 5787 5783 5779 5777 5773 5772 5770 5768 5765 5761 5758 5753 5748 5741 5734 5728 5721 5714 5708 5703 5701 5701 5702 5703 5705 5709 5712 5716 5720 5723 5726 5728 5730 5731 5733 5734 5734 5734 5734 5734
5790 5787 5782 5780 5779 5774 5770 5767 5764 5762 5761 5758 5756 5753 5750 5747 5742 5735 5728 5723 5717 5710 5704 5699 5696 5696 5697 5698 5701 5704 5708 5711 5714 5717 5719 5721 5722 5724 5724 5725 5725 5725 5725 5725
5782 5779 5775 5774 5770 5765 5761 5757 5755 5753 5753 5750 5748 5745 5743 5741 5736 5730 5724 5719 5713 5708 5702 5698 5694 5693 5694 5696 5698 5701 5704 5706 5709 5711 5712 5713 5714 5715 5716 5716 5717 5717 5717 5716
5777 5774 5770 5770 5762 5756 5752 5749 5747 5744 5743 5741 5740 5738 5736 5734 5731 5726 5720 5715 5710 5706 5701 5697 5694 5692 5692 5693 5695 5697 5699 5701 5703 5704 5705 5705 5706 5707 5707 5708 5708 5708 5709 5709
5771 5767 5766 5764 5757 5750 5745 5743 5740 5735 5734 5733 5732 5732 5729 5728 5726 5722 5717 5711 5707 5704 5701 5697 5695 5692 5692 5692 5693 5695 5696 5697 5697 5697 5698 5698 5699 5699 5700 5700 5701 5701 5702 5703
5765 5761 5758 5759 5752 5745 5741 5739 5734 5729 5728 5726 5724 5724 5723 5722 5720 5717 5713 5708 5704 5701 5699 5697 5695 5693 5693 5692 5693 5693 5692 5692 5691 5691 5691 5691 5692 5693 5694 5694 5695 5696 5697 5697
5760 5755 5752 5750 5744 5741 5737 5734 5729 5724 5721 5718 5715 5715 5716 5715 5714 5712 5709 5705 5701 5698 5697 5695 5694 5692 5692 5691 5690 5689 5688 5687 5686 5685 5684 5685 5686 5688 5689 5690 5691 5692 5692 5692
5754 5750 5748 5742 5737 5734 5731 5727 5722 5718 5714 5710 5708 5706 5707 5708 5708 5707 5705 5702 5699 5696 5694 5693 5691 5690 5689 5688 5688 5686 5685 5683 5682 5681 5681 5682 5683 5684 5685 5686 5687 5687 5688 5688
5747 5745 5739 5734 5729 5726 5722 5719 5716 5712 5708 5703 5700 5698 5698 5699 5700 5700 5699 5698 5696 5694 5692 5690 5689 5688 5687 5686 5686 5684 5683 5681 5679 5679 5679 5679 5680 5680 5681 5682 5683 5683 5683 5683
5739 5737 5732 5727 5722 5719 5714 5710 5707 5704 5700 5697 5693 5691 5690 5691 5692 5692 5692 5692 5691 5690 5689 5687 5686 5685 5684 5684 5683 5682 5681 5679 5678 5677 5677 5677 5677 5677 5678 5679 5679 5679 5680 5680
5732 5729 5725 5721 5715 5710 5706 5702 5698 5695 5692 5689 5687 5684 5683 5682 5683 5684 5685 5686 5685 5684 5683 5682 5682 5681 5680 5680 5679 5678 5678 5677 5676 5675 5675 5675 5675 5675 5676 5676 5676 5676 5676 5676
5723 5720 5716 5713 5708 5702 5697 5693 5690 5686 5684 5682 5679 5677 5674 5673 5674 5675 5677 5678 5678 5678 5677 5676 5676 5676 5676 5675 5674 5674 5674 5674 5673 5673 5672 5672 5672 5672 5673 5673 5673 5673 5673 5672
5712 5708 5705 5701 5697 5692 5688 5684 5680 5677 5675 5673 5671 5668 5666 5665 5665 5666 5667 5669 5669 5670 5669 5669 5670 5671 5671 5671 5671 5670 5670 5669 5669 5669 5669 5668 5668 5668 5668 5669 5669 5669 5668 5667
5702 5697 5693 5688 5684 5681 5677 5673 5670 5667 5665 5663 5661 5660 5658 5657 5656 5657 5658 5659 5660 5661 5661 5662 5663 5664 5665 5665 5665 5665 5665 5664 5664 5664 5664 5664 5664 5663 5663 5664 5664 5664 5664 5663
5690 5684 5679 5674 5670 5667 5664 5661 5658 5656 5654 5653 5652 5650 5650 5649 5649 5649 5650 5650 5650 5651 5652 5653 5654 5656 5657 5658 5658 5659 5659 5659 5659 5659 5659 5659 5658 5658 5659 5659 5659 5659 5659 5659
5678 5671 5665 5660 5656 5652 5649 5647 5645 5643 5642 5641 5640 5640 5640 5640 5641 5641 5641 5641 5641 5641 5642 5644 5645 5647 5649 5649 5650 5651 5652 5652 5652 5652 5653 5653 5653 5653 5653 5654 5654 5654 5654 5653
5662 5656 5651 5646 5641 5638 5635 5632 5630 5629 5628 5627 5627 5627 5628 5629 5630 5631 5632 5633 5633 5633 5633 5635 5637 5638 5640 5641 5641 5642 5643 5644 5645 5645 5646 5646 5647 5647 5647 5647 5647 5647 5647 5647
5643 5638 5632 5628 5624 5621 5620 5618 5616 5615 5613 5612 5612 5612 5614 5616 5619 5621 5622 5623 5624 5625 5626 5627 5628 5630 5631 5632 5633 5634 5635 5636 5636 5637 5638 5639 5639 5640 5640 5640 5640 5640 5640 5640
5624 5619 5614 5611 5607 5604 5602 5601 5601 5600 5598 5596 5596 5598 5599 5602 5605 5608 5610 5612 5614 5617 5618 5619 5620 5622 5623 5624 5626 5627 5628 5628 5627 5628 5630 5632 5632 5632 5633 5633 5633 5633 5634 5634
5602 5597 5593 5590 5588 5584 5582 5581 5582 5583 5583 5581 5581 5582 5585 5588 5591 5595 5598 5600 5604 5607 5609 5610 5612 5614 5615 5617 5618 5620 5621 5621 5620 5621 5622 5624 5625 5626 5626 5627 5627 5627 5628 5629
5581 5574 5568 5565 5563 5560 5557 5556 5558 5562 5564 5564 5564 5566 5570 5573 5577 5581 5585 5590 5594 5596 5598 5599 5602 5605 5607 5609 5611 5613 5614 5615 5615 5615 5616 5617 5618 5619 5620 5621 5621 5622 5622 5623
5559 5550 5543 5537 5533 5531 5530 5528 5530 5535 5541 5545 5547 5550 5554 5558 5562 5566 5571 5577 5581 5584 5587 5589 5592 5596 5598 5600 5602 5605 5606 5607 5608 5609 5610 5611 5612 5613 5614 5615 5616 5616 5617 5617
5534 5525 5517 5510 5504 5502 5503 5503 5503 5507 5515 5523 5529 5534 5539 5544 5547 5552 5557 5563 5567 5571 5576 5580 5584 5586 5589 5590 5592 5595 5598 5600 5601 5602 5603 5604 5605 5606 5607 5608 5609 5610 5611 5611
5512 5504 5497 5491 5486 5483 5481 5480 5481 5484 5492 5501 5511 5518 5524 5530 5535 5539 5544 5548 5552 5558 5564 5569 5573 5576 5578 5580 5582 5586 5589 5591 5594 5596 5597 5598 5598 5600 5601 5602 5603 5603 5603 5604
5500 5493 5487 5482 5476 5472 5468 5465 5465 5468 5474 5483 5494 5502 5509 5516 5522 5527 5531 5536 5540 5545 5551 5556 5561 5564 5567 5570 5573 5576 5579 5582 5585 5588 5590 5591 5592 5593 5594 5595 5596 5596 5596 5596
5494 5488 5482 5477 5471 5466 5462 5458 5457 5458 5462 5470 5480 5489 5497 5504 5509 5515 5520 5524 5528 5533 5539 5544 5548 5552 5555 5559 5562 5566 5570 5573 5576 5579 5582 5584 5585 5587 5588 5589 5589 5590 5590 5589
5490 5484 5478 5473 5468 5462 5458 5454 5451 5451 5454 5460 5469 5478 5486 5493 5499 5503 5508 5513 5517 5521 5526 5531 5536 5539 5543 5547 5551 5555 5559 5563 5566 5569 5573 5575 5578 5579 5580 5581 5582 5583 5583 5583